Weather History for EIKN - October, 2012

Change the Weather History Date:

Thursday, October 11, 2012

  Actual Average Record
Temperature  
Mean Temperature 48 °F -  
Max Temperature 51 °F - - ()
Min Temperature 44 °F - - ()
Degree Days  
Heating Degree Days 16    
Moisture  
Dew Point 44 °F    
Average Humidity 84    
Maximum Humidity 100    
Minimum Humidity 62    
Precipitation  
Precipitation 0.16 in - - ()
Sea Level Pressure  
Sea Level Pressure 29.63 in    
Wind  
Wind Speed 13 mph ()    
Max Wind Speed 20 mph    
Max Gust Speed -    
Visibility 6.2 miles    
Events Rain    
T = Trace of Precipitation, MM = Missing Value Source: Averaged Metar Reports

Daily Weather History Graph

Daily Weather History Graph

Search for Another Location

Airport or City:

Trip Planner

Search our weather history database for the weather conditions in past years. The results will help you decide how hot, cold, wet, or windy it might be!

Date:

Astronomy

Oct. 11, 2012 Rise Set
Actual Time 7:56 AM IST 6:46 PM IST
Civil Twilight 7:20 AM IST 7:22 PM IST
Nautical Twilight 6:39 AM IST 8:02 PM IST
Astronomical Twilight 5:58 AM IST 8:43 PM IST
Moon 2:43 AM IST (10/11) 4:46 PM IST (10/11)
Length of Visible Light 12h 01m
Length of Day
10h 50m
Waning Crescent, 20% of the Moon is Illuminated
Oct 11
Waning Crescent
Oct 15
New
Oct 22
First Quarter
Oct 29
Full
Nov 7
Last Quarter

Hourly Weather History & Observations

Time (IST) Temp. Windchill Dew Point Humidity Pressure Visibility Wind Dir Wind Speed Gust Speed Precip Events Conditions
1:00 AM 54 °F - 54 °F 100% 29.60 in - South 11.2 mph - -  
7:00 AM 49 °F - 49 °F 100% 29.59 in 4 mi NNW 15.7 mph - - Rain Rain
7:30 AM 48.2 °F - 46.4 °F 93% 29.56 in 5.0 mi NNW 18.4 mph - N/A Rain Light Rain
8:00 AM 48.2 °F - 46.4 °F 93% 29.59 in 4.3 mi NNW 13.8 mph - N/A Rain Rain
8:30 AM 48.2 °F - 48.2 °F 100% 29.59 in 5.6 mi NNW 18.4 mph - N/A Rain Light Rain
9:00 AM 48.2 °F - 46.4 °F 93% 29.59 in 1.9 mi NNW 12.7 mph - N/A Rain Light Rain
9:30 AM 46.4 °F 39.5 °F 46.4 °F 100% 29.62 in 6.2 mi NNW 17.3 mph - N/A Rain Light Rain
10:00 AM 46.4 °F 40.4 °F 46.4 °F 100% 29.62 in 5.6 mi NW 13.8 mph - N/A Rain Light Rain
10:30 AM 46.4 °F 40.4 °F 46.4 °F 100% 29.62 in 6.2 mi NNW 13.8 mph - N/A Rain Light Rain
11:00 AM 46.4 °F 40.1 °F 46.4 °F 100% 29.62 in 6.2 mi NNW 15.0 mph - N/A Rain Light Rain
11:30 AM 48.2 °F - 46.4 °F 93% 29.62 in 6.2 mi NNW 13.8 mph - N/A Rain Light Rain
12:00 PM 48.2 °F - 46.4 °F 93% 29.62 in 5.0 mi NNW 16.1 mph - N/A Rain Light Rain
12:30 PM 48.2 °F - 44.6 °F 87% 29.62 in 6.2 mi NNW 12.7 mph - N/A   Mostly Cloudy
1:00 PM 49 °F - 45 °F 82% 29.66 in 25 mi NNW 11.2 mph - - Rain Light Rain
1:00 PM 48.2 °F - 44.6 °F 87% 29.62 in 6.2 mi NNW 11.5 mph - N/A   Mostly Cloudy
1:30 PM 50.0 °F - 44.6 °F 82% 29.62 in 6.2 mi NNW 13.8 mph - N/A   Mostly Cloudy
2:00 PM 50.0 °F - 41.0 °F 71% 29.62 in 6.2 mi NNW 19.6 mph - N/A   Scattered Clouds
2:30 PM 51.8 °F - 41.0 °F 67% 29.62 in 6.2 mi NW 18.4 mph - N/A   Scattered Clouds
3:00 PM 50.0 °F - 41.0 °F 71% 29.65 in 6.2 mi NNW 19.6 mph - N/A   Scattered Clouds
3:30 PM 50.0 °F - 41.0 °F 71% 29.65 in 6.2 mi NNW 17.3 mph - N/A   Scattered Clouds
4:00 PM 50.0 °F - 41.0 °F 71% 29.65 in 6.2 mi NW 16.1 mph - N/A   Scattered Clouds
4:30 PM 50.0 °F - 37.4 °F 62% 29.65 in 6.2 mi NNW 18.4 mph - N/A   Partly Cloudy
5:00 PM 50.0 °F - 39.2 °F 66% 29.65 in 6.2 mi NNW 16.1 mph - N/A   Partly Cloudy
5:30 PM 50.0 °F - 39.2 °F 66% 29.65 in 6.2 mi NNW 13.8 mph - N/A   Scattered Clouds
6:00 PM 48.2 °F - 41.0 °F 76% 29.65 in 6.2 mi NW 11.5 mph - N/A   Scattered Clouds
6:30 PM 46.4 °F 41.5 °F 41.0 °F 81% 29.68 in 6.2 mi NW 10.4 mph - N/A   Scattered Clouds
7:00 PM 46 °F - 40 °F 73% 29.70 in 19 mi WNW 8.9 mph - -   Scattered Clouds
7:00 PM 46.4 °F 41.9 °F 41.0 °F 81% 29.68 in 6.2 mi WNW 9.2 mph - N/A   Partly Cloudy
7:30 PM 44.6 °F 39.7 °F 39.2 °F 81% 29.68 in 6.2 mi WNW 9.2 mph - N/A   Partly Cloudy